Theta_e
334 334 333 333 334 335 335 334 334 333 333 333 332 333 333 332 332 332 332 331 330 329 330 331 331 331 330 329 330 331 331 333 334 334 334 333 329 325 324 324 326 328 330 330 329 329 328 327 328 324 319 320 322 324 325 324 324 324 326 327 329 327 325 323 318 315 314 309 305 303 302 300 300 300 300 300 301 303 306 308 310 313 315 316 317
335 334 334 334 333 334 334 334 334 332 332 332 332 333 332 331 331 331 331 330 330 329 329 330 330 330 330 330 330 330 330 332 333 334 334 333 331 328 326 325 326 327 329 330 329 329 329 328 328 327 324 322 319 320 322 323 323 323 325 325 328 327 326 325 321 317 316 313 308 304 303 302 300 300 300 300 300 301 302 304 306 308 311 314 316
335 334 335 335 334 334 333 333 333 332 332 332 333 332 331 330 330 331 331 329 329 328 329 328 330 330 329 329 329 329 330 331 332 332 333 333 332 332 329 326 326 327 328 329 329 329 330 329 328 327 327 325 322 320 319 321 321 322 324 324 326 327 326 326 324 319 318 316 312 307 304 302 301 300 300 300 300 300 301 301 303 305 308 312 315
335 334 335 335 334 334 334 334 334 333 333 333 333 331 330 330 330 330 330 330 329 328 327 328 328 330 329 329 328 328 329 330 331 331 332 332 332 332 330 328 327 326 327 328 329 330 329 329 329 329 327 326 327 324 320 318 316 318 324 324 324 326 326 326 325 322 320 318 315 312 308 304 302 300 299 300 300 299 301 300 301 304 307 310 312
336 334 334 335 333 333 334 333 334 334 334 334 333 332 331 331 330 329 329 328 328 326 327 327 327 328 328 328 327 327 328 329 330 330 330 331 331 331 331 330 329 327 327 328 329 329 330 329 328 328 328 327 328 327 322 319 316 316 322 324 323 324 326 326 326 324 322 320 318 315 312 308 303 301 300 299 299 299 300 301 301 302 305 308 309
335 335 335 334 333 334 332 333 334 334 334 335 334 333 333 333 331 329 328 326 327 327 327 327 327 327 327 328 327 326 327 328 329 329 330 330 331 332 331 330 329 329 328 328 328 328 329 330 329 328 329 328 328 328 324 321 323 321 321 322 322 323 324 325 326 325 323 322 321 317 315 312 307 303 301 299 299 299 299 300 300 301 303 304 306
335 335 334 334 334 335 333 333 334 333 334 334 334 333 332 333 332 329 327 326 326 327 326 326 327 326 327 327 328 327 327 328 328 328 328 329 330 331 332 332 331 330 329 329 328 327 328 329 329 328 329 329 328 329 327 323 324 325 323 321 320 322 323 325 326 326 325 324 323 320 317 315 312 307 303 300 299 298 298 299 300 300 300 302 303
335 334 333 334 334 333 333 333 332 332 333 331 331 332 331 333 332 329 329 328 326 327 327 326 327 328 328 328 329 329 329 329 328 328 328 328 329 329 331 333 333 332 330 329 329 328 328 328 328 328 329 330 328 328 328 326 324 326 327 322 320 321 322 324 326 326 326 325 324 323 320 317 314 311 306 302 300 298 298 298 298 299 299 299 301
335 334 334 334 333 332 331 331 331 332 332 332 332 332 332 333 331 330 331 330 330 330 329 330 330 330 331 329 329 330 330 330 330 329 329 328 328 328 329 330 332 333 332 331 331 329 328 328 328 328 328 329 329 328 328 328 327 327 328 325 322 323 320 320 324 326 326 326 325 325 322 319 316 314 309 305 301 298 298 298 297 298 299 299 300
334 334 334 334 332 330 330 331 332 333 333 333 333 332 333 332 332 331 331 331 332 331 329 331 330 329 330 330 330 331 330 330 330 329 329 328 328 328 328 328 330 332 332 332 333 333 331 329 328 327 328 328 328 328 327 328 330 329 328 326 325 326 322 316 318 323 323 325 326 325 324 320 317 316 313 308 304 300 298 297 297 297 298 299 300
332 332 332 332 331 330 331 332 332 333 333 333 333 332 332 332 332 332 331 332 333 332 330 330 329 329 330 330 330 330 331 330 330 330 329 329 329 328 328 328 329 329 331 332 332 333 334 331 330 328 328 328 328 328 327 327 330 330 329 327 326 327 325 320 317 317 320 324 327 326 325 323 321 320 318 314 308 303 300 298 297 297 297 298 299
328 328 329 329 330 331 330 331 332 332 332 333 333 332 331 331 332 332 332 332 332 331 330 331 331 330 331 330 329 328 328 328 329 330 330 330 330 329 328 329 329 330 329 330 331 332 333 333 332 330 329 328 328 327 328 327 327 330 330 329 328 328 327 325 323 318 318 322 324 326 326 325 325 324 322 320 316 309 304 300 297 297 297 296 298
325 325 326 327 328 329 329 328 330 331 331 332 333 332 332 332 333 333 332 331 331 330 330 331 331 330 331 331 329 327 325 325 326 329 331 330 330 329 329 329 330 331 330 329 330 330 332 334 332 332 330 330 329 328 328 328 327 328 330 330 330 330 328 327 327 325 323 321 320 323 326 326 326 325 325 325 322 317 311 305 300 298 297 296 296
322 323 324 324 325 327 327 327 329 330 331 331 331 331 331 331 332 332 331 331 330 329 330 331 330 330 330 331 332 330 328 327 325 328 331 331 330 329 329 329 330 330 330 330 330 329 330 331 332 332 332 331 331 330 328 328 328 326 328 329 329 330 330 329 328 327 327 325 322 322 323 324 324 325 326 326 325 323 319 313 306 301 298 297 296
322 322 322 323 324 324 326 327 328 329 330 330 331 331 331 331 332 331 331 330 330 330 330 330 329 330 331 331 333 333 333 332 329 330 331 331 330 330 330 330 330 330 330 330 329 330 330 330 329 330 330 331 332 333 330 329 329 328 328 327 327 329 330 331 330 329 329 328 326 325 324 323 322 322 323 325 326 325 323 320 315 307 301 298 297
323 322 322 322 323 323 324 326 326 327 328 329 329 329 330 331 331 330 329 328 329 329 329 330 330 330 332 332 332 333 334 333 332 331 331 331 330 330 331 331 331 331 330 329 329 329 330 329 329 329 329 330 331 332 332 331 329 329 329 328 327 327 327 329 330 331 330 329 329 328 328 327 325 322 321 322 324 324 324 323 321 315 306 300 297
322 322 322 321 321 322 323 324 324 325 326 326 327 327 328 329 329 329 328 328 328 329 329 330 329 329 331 332 332 334 335 332 333 333 330 330 330 330 330 330 330 331 330 330 329 328 328 329 329 329 329 329 330 331 331 331 330 330 329 329 328 327 327 327 328 330 331 331 330 329 329 329 328 325 323 321 322 323 324 324 324 320 312 304 299
321 321 321 321 321 320 321 321 322 322 323 323 325 326 327 327 328 328 329 329 329 329 329 329 329 329 330 331 331 333 333 332 334 335 331 328 329 329 329 329 329 330 330 331 330 329 328 328 328 329 329 329 329 329 330 330 331 331 330 329 328 327 327 327 327 328 330 332 331 331 330 330 329 327 326 325 323 323 323 324 324 323 317 309 303
322 321 321 321 321 320 320 320 320 320 321 321 322 323 324 325 325 327 327 328 328 328 328 328 329 329 329 329 329 329 330 331 333 335 335 332 330 328 328 328 328 328 330 330 330 329 328 328 328 329 329 329 329 329 329 330 330 331 331 330 329 328 326 327 327 327 328 329 331 332 332 331 330 329 327 327 326 325 324 323 324 323 321 316 308
322 322 321 321 321 321 320 319 319 319 320 321 322 321 321 322 323 324 325 325 326 326 325 326 327 327 326 328 329 328 327 327 327 331 334 335 332 330 327 325 327 328 328 328 327 328 328 328 330 331 331 330 330 329 328 329 329 329 330 330 330 330 329 328 327 326 327 328 328 330 331 332 331 330 329 329 328 327 325 324 323 322 322 321 318
321 321 320 319 319 319 318 316 315 315 316 317 318 318 318 320 321 322 322 322 324 324 323 324 325 325 324 325 327 328 327 326 327 328 331 333 334 333 328 326 328 327 326 326 324 324 325 325 326 328 329 329 329 329 329 329 329 328 329 329 330 330 331 330 328 328 328 329 328 328 330 332 332 331 331 330 330 329 328 326 325 323 322 322 322
321 319 317 316 316 315 315 314 314 314 314 315 314 316 317 318 319 320 320 320 320 321 321 321 322 322 322 322 322 324 325 327 328 327 327 328 330 330 327 327 329 327 323 323 323 322 321 320 321 322 323 324 325 327 328 329 330 329 330 329 329 330 330 330 330 330 329 329 329 329 329 331 332 331 331 330 330 330 329 328 327 325 323 322 321
320 317 315 315 314 314 314 314 315 315 315 316 316 317 317 318 318 319 319 319 319 319 319 320 319 318 318 318 318 319 321 321 321 320 321 322 323 323 321 320 321 319 320 323 322 322 323 323 323 323 323 323 324 325 326 328 329 329 330 330 330 331 332 331 330 330 331 330 330 329 329 329 330 331 331 330 330 330 330 329 328 326 324 323 322
319 317 316 316 314 314 315 314 315 315 315 316 316 317 317 318 318 318 318 319 319 318 319 319 318 317 316 316 317 317 317 317 317 316 318 319 319 320 318 317 317 316 317 319 319 320 320 320 321 321 320 320 322 325 326 328 329 329 330 330 330 331 331 332 331 330 329 329 328 328 328 329 329 329 330 331 331 331 330 329 328 327 325 324 324
319 318 317 317 316 316 316 315 314 315 315 315 316 316 316 316 318 317 317 317 317 316 317 317 316 317 316 315 316 316 314 314 315 315 315 316 316 318 318 316 317 317 315 315 315 316 317 317 316 317 317 318 321 325 327 328 329 328 328 330 330 330 330 330 329 328 327 326 326 326 327 328 328 328 329 330 331 330 331 330 329 328 328 326 325
319 318 316 317 317 317 317 315 314 314 314 315 316 316 316 316 317 317 317 317 316 315 316 315 315 316 315 315 314 314 314 314 314 314 314 314 314 316 316 316 316 316 316 316 314 315 316 316 316 317 319 321 323 327 328 327 327 327 327 327 328 328 328 328 327 327 326 326 325 326 326 326 327 327 327 329 330 330 330 330 330 330 329 328 326
319 318 317 317 318 318 317 316 314 314 314 314 315 315 316 316 316 316 316 316 315 314 314 314 313 313 314 315 314 313 312 312 313 314 314 313 313 313 314 316 318 317 317 316 315 314 315 315 316 316 318 321 323 326 326 326 325 326 325 325 325 326 326 327 326 326 325 326 326 325 325 325 326 326 327 327 328 329 330 330 330 330 329 329 328
320 319 316 317 319 318 317 316 315 315 314 314 315 314 315 316 316 316 316 315 315 315 314 314 313 312 313 315 315 312 311 312 313 313 313 313 313 313 313 314 316 317 318 318 318 316 315 314 315 315 315 318 320 321 322 324 325 323 321 321 323 324 324 325 325 324 324 325 325 325 325 325 325 325 326 327 327 327 328 329 330 329 329 329 329
320 320 317 316 319 319 317 317 316 315 315 315 315 314 314 315 315 316 316 316 316 315 315 315 314 313 312 313 314 311 309 312 313 311 312 313 313 313 313 313 314 315 317 318 318 316 314 314 315 315 315 314 315 316 316 319 319 317 316 317 318 319 319 320 321 321 322 322 322 323 323 324 325 325 325 325 326 326 326 327 328 328 329 329 328
321 321 318 317 319 319 318 317 316 316 315 315 315 314 315 316 315 315 316 315 314 314 314 314 313 312 312 312 313 312 309 311 313 312 312 313 312 312 313 312 313 314 315 316 316 314 313 313 313 313 314 313 312 313 313 314 315 314 313 313 313 314 315 315 316 316 317 317 317 317 317 317 319 322 324 325 325 325 325 325 326 327 327 328 328
321 322 319 318 319 319 318 318 317 316 316 316 315 314 315 315 315 315 314 313 314 314 313 312 312 312 312 311 312 312 309 309 311 313 312 311 311 311 310 310 312 313 313 314 315 314 312 312 312 312 313 313 312 313 313 313 313 313 313 312 313 314 314 315 315 316 316 316 315 315 315 314 314 316 319 323 324 324 325 325 325 325 326 326 327
321 323 321 319 319 319 318 319 318 317 316 316 315 314 314 315 314 315 314 313 314 314 311 312 312 312 312 311 311 310 307 308 310 311 310 311 311 311 310 310 311 312 312 313 314 314 312 312 312 312 312 312 311 312 312 312 312 312 312 313 314 314 314 315 315 316 316 316 317 317 318 317 317 315 315 316 318 318 319 322 325 325 325 325 325
320 322 322 320 320 319 318 319 319 318 317 316 315 314 314 315 314 314 314 313 313 313 312 311 311 311 311 311 311 311 309 308 308 309 309 310 310 311 311 311 311 311 311 311 312 312 312 311 311 311 311 310 310 310 311 311 311 311 312 312 312 312 312 312 312 313 313 314 315 316 316 317 317 317 316 316 317 317 316 318 322 324 325 325 325
319 320 321 321 321 320 319 319 319 319 318 316 316 315 315 315 314 315 314 313 313 313 313 311 311 311 310 309 310 311 310 308 307 309 309 308 309 310 310 310 309 310 309 309 310 310 310 310 310 310 310 310 310 310 310 310 310 310 310 311 311 310 311 311 311 311 311 312 313 313 314 314 314 315 317 317 318 320 319 318 319 321 322 324 324
320 319 319 320 321 320 320 320 319 319 318 317 316 315 315 316 315 315 314 313 313 314 313 312 312 312 311 310 311 311 310 310 310 310 309 309 309 309 309 309 309 308 308 309 310 310 311 311 311 311 311 310 310 310 310 310 309 309 310 310 310 310 311 310 310 310 311 311 312 313 313 314 315 317 317 319 320 320 319 319 318 318 319 320 322
321 320 320 320 320 320 320 320 320 319 319 318 317 316 315 316 315 315 314 312 312 313 313 312 312 312 311 311 311 311 311 310 309 309 309 309 309 308 308 308 308 308 308 308 308 309 310 310 309 309 309 309 309 309 309 309 309 310 309 309 309 309 309 309 310 310 310 311 311 310 310 311 314 316 318 319 321 321 320 319 318 318 317 317 318
322 321 321 320 320 320 320 320 320 320 319 319 318 317 316 316 316 316 314 312 313 313 312 312 311 311 311 311 310 310 309 309 309 309 309 308 308 307 307 307 307 307 307 306 307 307 307 308 308 307 308 308 308 308 308 308 308 309 309 309 309 309 309 309 309 309 309 310 310 310 311 312 312 314 316 317 318 318 318 317 317 317 317 316 316
321 321 321 321 320 320 320 320 320 320 320 319 319 318 317 316 315 315 314 313 313 313 312 312 311 310 310 310 309 309 308 308 308 308 307 307 307 306 306 306 306 306 306 306 307 307 307 307 308 307 308 307 308 308 308 308 308 308 308 308 308 308 309 309 309 310 310 311 312 313 313 312 311 311 313 314 315 316 316 316 316 317 316 316 315
319 319 320 321 319 319 320 320 320 320 321 320 319 318 318 317 316 315 314 313 313 313 312 311 311 309 309 309 308 307 307 307 306 307 307 306 304 304 304 303 303 303 303 304 304 305 305 305 306 307 307 307 307 307 307 307 308 308 308 308 309 309 310 310 310 311 311 311 311 311 310 309 308 308 309 311 313 315 315 316 316 317 316 316 315
319 319 321 321 320 319 320 321 320 319 320 320 320 319 318 317 316 315 314 313 313 312 312 311 310 309 308 307 307 306 306 305 305 306 304 300 298 298 299 299 300 301 301 302 302 303 303 304 304 305 305 306 306 306 307 307 308 308 308 308 309 309 309 309 310 309 309 309 309 309 309 309 309 309 309 309 311 312 313 314 316 318 318 318 317
322 322 322 321 321 320 320 320 320 320 320 320 319 319 318 318 317 315 314 314 313 312 312 311 309 308 308 306 305 306 305 305 305 304 301 297 294 294 294 295 297 299 300 300 301 302 302 303 303 303 304 304 305 305 305 306 306 307 307 307 307 307 307 308 308 308 308 308 309 310 310 310 310 310 310 310 310 311 312 314 317 318 318 318 318
323 322 322 321 321 320 320 320 320 320 320 320 319 318 318 319 317 315 315 314 313 312 312 310 308 307 306 305 305 305 304 304 304 302 299 298 296 295 295 296 296 297 297 298 298 299 300 300 301 301 302 302 303 303 304 304 305 305 306 306 307 307 308 308 308 308 308 308 309 309 309 310 311 311 311 312 312 312 313 314 316 317 317 317 318
321 322 322 322 322 321 321 321 320 320 320 320 319 319 319 319 317 316 315 314 313 312 311 309 307 307 306 305 305 305 304 303 302 301 300 300 298 297 298 298 298 298 298 298 298 298 298 299 299 300 300 301 301 302 302 303 303 304 305 305 306 306 307 307 307 307 308 307 307 307 307 308 309 309 310 310 311 312 312 312 313 315 317 318 319
318 320 321 322 322 322 322 322 322 321 321 320 320 319 319 318 317 315 314 314 313 312 310 308 307 307 306 305 305 305 304 303 302 302 301 300 299 299 300 300 299 299 299 298 298 298 298 299 299 299 299 300 300 300 300 301 302 302 303 303 304 305 305 305 306 306 306 306 305 305 306 307 307 308 308 308 309 309 309 310 311 312 313 314 317
316 317 319 319 320 321 322 322 322 322 322 320 319 319 318 317 315 314 314 313 312 310 309 308 307 306 306 305 304 304 304 303 302 302 301 300 300 300 300 300 299 299 299 299 299 299 299 299 299 299 299 299 300 300 300 300 301 301 301 302 302 302 302 303 303 303 304 304 304 304 304 305 305 305 306 306 306 306 307 308 308 309 310 311 314
314 315 317 317 318 319 320 321 321 322 321 320 319 319 318 316 315 314 312 311 310 308 308 307 306 305 304 304 303 303 303 303 302 301 301 301 301 300 299 299 299 299 299 299 299 300 300 300 299 299 299 299 300 300 299 300 300 300 301 301 300 300 299 300 300 300 301 301 302 302 302 303 303 303 303 303 303 304 305 306 306 306 307 308 311
312 313 314 316 317 318 319 319 320 320 320 319 319 318 317 315 314 312 310 309 308 307 306 306 305 304 303 303 302 302 302 301 301 301 300 301 300 299 298 298 297 297 298 298 299 299 300 300 299 300 300 299 299 299 299 300 300 300 300 299 298 298 297 298 298 299 299 300 300 301 302 302 302 303 303 303 304 304 304 305 306 306 308 309 310
312 312 313 314 315 316 317 318 319 319 319 318 318 317 315 314 312 310 309 308 306 305 304 304 303 303 302 302 302 302 301 301 301 301 301 300 300 298 298 297 297 297 297 297 298 298 298 299 299 299 299 299 299 299 299 299 299 299 299 298 297 296 296 297 297 298 298 299 299 300 301 302 302 303 303 303 303 304 305 305 306 306 308 309 311
312 313 312 313 314 315 315 317 318 318 317 317 316 315 313 312 310 308 307 306 304 303 302 302 302 302 302 302 302 302 302 302 302 302 300 300 299 298 297 297 297 297 297 297 297 297 297 297 297 297 298 298 298 298 298 298 298 298 297 296 296 296 296 296 296 297 298 298 299 299 300 301 302 302 303 303 303 304 304 305 306 306 307 308 310
310 312 313 313 313 314 314 315 317 317 316 315 313 311 310 309 307 306 305 304 302 301 301 301 301 302 302 302 302 301 301 301 301 300 299 299 298 297 297 297 297 297 297 296 296 296 296 296 296 296 297 297 297 297 297 297 297 297 296 296 295 295 295 295 296 296 297 297 298 298 299 300 300 301 302 303 303 304 304 305 305 306 307 308 309
310 311 312 312 313 313 314 315 315 315 315 313 310 308 307 306 305 304 303 302 302 301 301 301 301 301 301 301 301 300 300 300 299 298 298 297 296 296 296 295 296 296 296 296 295 295 295 294 294 294 294 294 294 294 295 296 296 296 297 296 296 295 295 295 296 296 296 297 297 297 298 299 300 300 301 301 302 303 304 305 306 307 309 311 312
Wind_Speed
9 11 12 13 12 11 10 8 10 15 15 14 12 10 11 11 10 11 10 11 11 10 12 11 10 9 7 7 7 7 8 8 8 9 9 8 9 7 5 6 8 11 11 8 9 10 8 8 6 5 6 8 8 8 7 7 8 8 7 7 5 2 1 2 4 5 7 7 8 9 9 9 9 9 9 9 8 9 9 9 10 11 11 12 12
9 9 10 11 12 12 11 8 10 14 12 11 12 10 10 10 9 10 11 10 11 11 13 12 11 10 9 9 9 8 8 8 8 9 10 9 8 7 5 5 7 9 10 9 9 10 8 8 8 6 6 6 7 8 8 8 9 9 7 7 7 4 2 2 3 4 5 6 7 8 8 8 8 8 8 8 8 8 8 8 8 9 10 11 12
9 10 8 9 11 12 12 11 11 12 10 8 8 8 9 9 8 10 12 12 12 12 13 13 11 10 10 10 10 10 9 10 9 9 10 11 8 8 7 5 6 7 9 9 9 9 8 8 9 8 7 7 6 6 7 8 9 9 8 8 8 7 4 3 2 3 4 5 6 6 7 7 7 7 7 8 8 7 7 7 8 9 10 10 11
10 10 9 9 11 13 12 11 11 10 9 7 5 7 8 8 9 11 13 13 12 9 10 12 12 11 11 11 11 10 10 10 10 9 11 12 10 9 9 7 6 6 7 9 10 10 8 8 10 9 7 8 8 7 5 6 8 9 9 9 9 9 7 5 3 2 3 3 4 5 6 6 6 6 6 7 7 7 7 7 7 8 9 9 10
9 9 10 10 11 12 11 9 8 8 8 7 5 6 7 7 8 11 11 10 9 8 7 9 11 11 12 12 11 11 10 10 10 9 10 12 11 11 10 9 9 8 8 9 10 11 10 8 9 10 8 8 9 8 5 5 6 7 9 10 9 10 9 7 5 3 3 2 3 4 5 5 6 6 5 5 6 6 6 6 7 7 7 8 8
9 9 11 12 11 11 10 8 7 8 9 8 8 7 8 8 8 9 7 6 7 8 8 8 9 10 10 11 9 9 10 10 11 11 10 10 11 12 11 10 11 11 10 10 9 10 11 10 9 10 8 7 10 10 7 6 6 5 7 10 9 10 11 9 7 5 3 2 2 2 3 4 5 5 5 5 5 5 5 5 6 6 6 6 7
8 9 11 12 11 10 10 10 8 8 9 10 13 12 9 9 8 7 4 5 7 7 7 7 9 9 8 9 8 5 5 6 8 11 12 12 10 9 10 11 12 12 12 11 11 10 10 11 10 10 10 8 9 10 8 7 7 5 4 7 8 9 11 11 9 8 5 3 2 2 2 3 4 4 4 4 4 4 4 4 4 5 5 5 5
6 6 8 9 9 10 9 9 6 5 8 13 16 13 10 10 10 8 4 5 8 7 6 6 7 6 2 4 5 6 5 5 5 6 9 11 11 9 8 9 10 11 11 11 12 12 11 11 11 11 12 11 10 9 9 8 8 5 3 5 6 7 10 12 10 9 8 6 4 3 4 4 4 4 4 4 3 4 4 3 4 4 4 4 5
4 4 5 5 6 8 7 5 6 9 12 14 15 11 9 10 11 9 5 5 4 2 2 2 2 4 4 1 4 5 5 5 5 7 7 7 9 11 10 9 9 11 11 10 11 12 12 12 12 12 12 13 12 10 9 9 10 8 5 5 5 4 6 12 13 10 10 8 6 5 5 6 6 4 4 3 3 3 3 3 3 3 4 4 4
1 1 1 3 3 5 4 4 7 11 13 13 16 14 8 8 10 9 7 6 2 6 5 4 6 5 5 3 3 4 4 5 6 6 8 8 7 9 11 11 11 11 11 11 11 12 12 13 13 13 13 13 13 12 10 10 11 10 8 6 7 5 4 10 13 12 11 9 8 7 6 5 6 5 4 4 3 3 3 3 3 3 4 4 4
4 5 4 3 2 1 1 3 5 8 11 11 14 15 10 9 9 9 8 4 1 4 4 2 5 3 4 6 5 4 3 5 7 7 7 8 9 9 9 9 11 12 12 12 12 13 13 14 14 14 14 14 14 14 12 11 11 12 11 8 10 9 6 7 10 11 12 11 10 10 8 7 5 4 4 3 3 3 3 3 4 4 4 4 5
4 5 5 5 4 4 2 1 1 3 8 9 10 13 12 10 7 8 7 2 1 2 4 2 3 2 2 4 6 7 5 6 8 7 6 8 9 9 8 6 5 9 11 11 12 13 13 14 15 14 15 15 15 15 14 13 12 13 13 10 11 12 9 7 8 9 10 11 11 12 11 9 7 4 3 3 3 3 3 4 4 4 4 5 5
5 6 5 5 3 3 4 3 3 1 3 5 7 10 10 9 6 4 4 3 3 3 4 5 3 2 0 1 5 9 8 8 8 8 7 8 9 10 10 9 8 5 7 9 10 11 10 12 15 15 14 14 15 16 16 16 14 14 15 14 14 14 13 10 9 8 8 9 10 12 12 12 10 7 5 4 3 3 4 4 4 5 4 5 5
6 6 5 7 6 4 4 5 4 3 1 1 4 6 6 7 6 3 2 5 6 5 6 7 4 3 2 1 3 6 7 7 10 9 8 8 7 8 9 10 11 9 8 8 9 9 7 6 11 13 14 15 16 18 18 17 16 16 16 16 16 16 15 13 12 10 9 8 9 11 13 13 12 11 9 7 5 5 5 5 5 5 5 5 6
6 6 6 7 7 6 6 5 4 5 4 3 2 2 3 4 3 4 5 4 6 6 7 7 6 5 2 1 0 2 3 3 5 6 7 7 5 5 6 7 9 10 12 12 10 11 10 7 8 11 14 14 15 18 19 18 18 18 17 17 16 17 17 16 14 12 11 10 9 10 12 12 12 11 11 10 8 7 7 7 6 6 6 6 6
8 9 8 7 7 6 7 6 5 5 5 5 4 4 3 2 2 5 6 5 6 7 7 8 9 7 2 1 2 1 2 1 1 4 3 3 2 2 3 5 7 7 10 11 11 12 12 11 11 11 14 13 9 12 17 17 17 18 18 18 17 16 17 17 17 15 14 13 12 12 12 12 11 10 11 11 11 10 10 9 8 8 8 7 7
8 9 9 8 8 6 6 6 6 5 5 5 5 6 7 5 2 3 5 7 7 6 5 5 8 8 3 2 2 1 2 1 1 1 1 1 2 3 3 4 5 6 7 8 8 9 10 11 12 12 13 14 9 7 12 15 17 18 18 19 19 18 17 17 17 17 15 15 14 14 15 14 12 11 10 11 12 12 12 11 10 10 10 9 8
8 8 8 7 7 5 6 7 6 5 6 8 8 7 9 11 8 6 5 6 7 5 5 4 5 7 4 2 1 2 3 2 1 1 3 3 3 3 4 4 5 5 5 5 6 6 7 8 9 9 8 12 14 11 11 11 13 16 17 18 19 18 18 17 17 17 17 16 16 16 17 17 15 13 12 11 12 13 13 13 12 11 11 11 10
9 8 8 7 7 6 8 9 8 5 5 9 12 11 11 12 11 9 8 7 7 6 6 6 5 4 3 2 1 1 3 3 2 1 1 2 2 3 5 6 7 7 5 5 5 5 6 7 7 6 4 8 13 13 13 11 9 12 16 16 17 17 17 17 18 18 18 19 18 17 18 19 17 16 15 14 13 13 14 14 14 13 13 13 12
8 8 8 8 8 8 7 9 10 9 8 9 11 12 12 12 10 11 11 9 8 7 7 7 5 4 2 2 2 3 3 3 3 3 2 0 2 4 5 5 5 7 7 7 6 5 7 7 7 7 6 7 9 9 10 12 11 13 18 17 16 16 16 16 18 18 18 19 20 19 19 19 18 18 17 16 16 15 15 15 15 15 14 14 13
8 8 9 8 8 8 7 8 11 12 12 10 9 9 10 10 10 11 11 9 8 7 7 8 7 5 3 2 3 6 6 5 4 4 3 2 2 3 4 3 3 6 8 6 5 5 6 8 8 9 9 9 9 9 9 11 13 16 21 19 16 17 17 17 18 17 17 18 20 21 21 19 19 19 19 17 17 17 17 16 16 16 16 16 15
8 8 8 9 8 8 8 8 10 11 11 10 9 9 9 9 10 10 10 9 10 9 10 9 7 5 5 4 3 1 3 4 3 1 3 3 2 3 4 4 3 5 6 6 5 5 6 8 8 8 9 10 11 11 11 13 14 15 18 18 17 18 17 18 19 18 18 17 18 20 21 22 21 21 21 20 19 18 18 18 18 17 17 17 16
7 7 8 8 8 8 8 8 8 9 10 10 9 9 9 9 9 10 10 10 10 11 11 11 8 6 8 10 10 9 7 6 7 7 6 3 3 4 6 9 9 9 7 5 4 4 6 8 10 10 9 10 10 10 12 16 16 15 15 15 15 15 15 16 16 17 17 18 19 20 21 23 23 23 22 22 21 20 19 18 19 18 17 18 18
7 7 7 7 7 8 8 7 8 8 9 8 9 9 8 9 9 10 10 10 10 10 10 10 9 9 9 9 9 9 9 9 9 9 9 8 6 4 7 11 10 11 13 9 6 8 10 10 9 9 9 12 14 13 13 13 10 10 11 11 11 9 9 11 12 14 15 17 19 21 22 24 25 26 24 22 22 22 20 19 19 19 18 19 19
8 7 7 6 6 7 6 6 6 7 7 8 8 9 8 9 10 10 10 10 10 11 10 10 10 9 9 8 8 9 9 8 7 7 6 7 8 5 7 10 8 10 14 12 12 12 13 11 7 6 8 10 11 10 9 7 3 4 5 6 7 7 7 8 9 12 14 16 17 19 22 24 25 27 27 25 22 22 22 20 20 20 20 20 21
9 8 7 7 6 6 5 5 5 5 6 7 8 8 8 9 9 9 10 10 9 10 10 10 9 8 9 8 8 8 8 7 7 7 6 7 8 8 8 9 9 10 11 12 13 10 7 7 5 3 2 2 5 6 6 3 1 5 5 5 6 7 8 9 10 11 13 15 16 16 18 20 23 25 28 28 25 24 24 24 23 23 23 22 22
10 9 8 8 7 6 6 5 5 5 5 6 6 7 8 8 8 8 8 8 8 8 9 9 9 8 8 8 8 8 7 7 7 7 7 7 7 8 7 6 6 7 7 10 13 11 12 10 6 6 10 13 13 10 6 4 3 4 5 6 7 7 9 10 10 10 12 13 15 16 16 17 19 21 24 26 27 27 27 27 27 26 26 25 25
10 10 9 9 8 7 7 6 6 5 5 6 5 5 7 7 7 8 7 7 8 7 7 7 8 7 8 9 8 6 5 5 6 5 5 6 5 5 6 5 4 4 4 7 8 9 15 15 11 12 15 16 14 10 8 5 2 2 4 6 6 7 9 10 10 11 12 13 14 15 16 17 19 20 22 23 25 26 28 30 30 30 29 29 28
11 11 9 9 9 8 8 7 6 6 5 6 5 5 6 6 6 7 6 6 6 6 6 6 6 5 6 7 6 4 5 5 3 3 4 4 4 3 4 4 4 3 3 4 5 7 12 14 12 12 15 16 14 10 8 5 4 5 7 8 8 9 11 11 12 13 14 16 16 16 17 17 18 19 21 23 24 24 26 29 31 33 33 32 31
10 11 9 10 10 9 9 9 8 7 7 6 6 6 6 6 6 6 6 6 6 6 6 5 5 5 4 5 5 4 5 5 3 3 4 4 4 4 4 3 3 3 2 3 4 6 11 14 15 15 17 18 15 12 10 9 11 13 14 14 13 13 14 14 16 17 18 20 21 21 21 21 20 19 20 22 23 23 24 26 28 31 33 34 34
10 11 10 11 11 11 11 10 10 9 9 9 8 7 7 7 7 6 6 6 6 5 5 5 4 4 4 4 5 4 4 5 4 3 4 5 4 5 6 5 4 4 3 4 3 5 11 15 16 16 17 17 16 14 13 12 13 14 13 14 14 13 14 15 17 18 19 20 21 21 22 22 22 21 21 21 22 23 24 25 26 29 31 33 35
9 10 11 12 13 13 12 12 12 12 11 11 11 9 9 8 8 8 7 7 7 6 5 5 5 4 3 3 2 2 3 5 4 3 4 4 3 4 4 3 4 4 5 6 5 8 13 15 15 16 15 15 16 15 14 14 14 14 13 13 13 14 15 16 17 17 18 19 19 20 19 20 20 20 21 22 23 23 24 25 26 27 28 30 33
11 11 11 12 14 14 14 14 14 14 13 13 13 12 11 11 10 10 9 9 9 8 7 6 6 5 4 3 2 1 1 3 3 3 4 5 5 6 5 3 4 4 5 7 7 9 13 14 14 16 16 16 17 15 15 16 16 16 15 15 15 16 17 18 17 17 17 17 18 19 20 21 21 21 21 21 22 23 23 25 25 26 27 28 29
12 13 13 13 14 15 15 16 16 16 15 16 16 14 14 14 13 12 12 12 11 11 10 9 7 7 6 4 4 3 2 1 2 2 4 5 5 7 6 5 6 7 6 9 10 10 13 15 16 17 16 16 16 15 15 17 18 17 17 18 17 17 17 17 17 18 17 18 18 19 19 21 22 23 23 22 22 22 23 23 24 25 27 28 29
10 12 13 14 16 16 17 17 17 17 17 17 17 17 16 16 15 15 15 13 13 13 12 10 10 9 8 6 5 5 4 2 1 2 3 4 4 5 6 7 8 9 8 9 10 11 13 15 16 16 16 16 16 17 17 18 18 18 19 19 18 17 17 17 18 18 18 18 18 17 16 17 19 21 23 24 24 24 24 24 24 24 26 27 29
13 12 13 14 15 17 19 19 18 18 18 18 18 18 18 17 17 17 16 15 14 14 13 11 11 10 9 8 7 6 6 4 2 2 2 2 3 4 6 7 8 9 9 8 9 11 13 15 15 16 17 18 18 18 18 18 18 18 18 18 18 18 17 17 17 17 18 20 21 20 19 18 18 19 21 24 25 25 25 25 26 26 26 27 28
14 14 16 18 18 19 20 21 21 20 19 19 18 18 17 17 17 17 16 16 15 15 14 12 12 11 10 9 8 7 6 5 3 3 2 2 3 4 5 7 8 10 11 11 12 13 14 16 18 18 18 19 19 19 18 19 19 19 18 17 17 18 18 18 19 20 20 21 20 20 19 18 17 18 20 22 25 26 27 27 27 28 28 29 29
15 17 22 23 22 20 20 20 22 22 21 20 19 19 17 16 17 17 15 15 16 15 14 13 13 12 11 9 8 8 7 6 5 4 3 3 3 4 5 7 8 10 11 12 12 13 15 17 18 18 19 19 20 20 18 17 19 20 19 19 19 19 19 19 19 18 18 18 17 17 18 19 21 21 22 23 24 26 27 27 28 28 29 29 29
20 23 26 25 22 22 22 22 22 22 21 20 18 19 19 18 18 18 17 16 16 16 15 14 13 12 12 10 9 9 8 6 6 5 5 4 4 5 6 7 8 9 10 11 12 13 15 17 18 18 19 18 19 20 19 17 18 19 19 19 19 17 16 16 16 16 16 18 20 21 23 24 24 23 23 24 25 27 27 28 29 29 29 28 28
24 26 26 25 23 21 21 22 22 21 21 21 19 17 17 18 20 20 19 18 17 16 15 14 13 12 12 11 9 9 8 8 9 9 7 6 7 8 8 7 7 8 10 11 11 13 14 16 17 18 18 19 18 19 19 17 16 16 16 17 19 19 19 19 20 21 21 23 24 25 24 23 23 23 23 24 25 26 28 29 30 29 29 30 30
24 25 25 24 23 20 19 22 24 23 23 23 21 19 19 20 22 21 20 19 18 16 15 14 13 12 12 10 10 10 10 11 12 11 9 9 9 9 9 8 8 8 9 10 11 12 14 15 16 17 17 17 17 18 18 17 17 18 19 21 23 23 24 24 24 22 21 22 23 24 22 21 21 22 22 23 24 25 26 28 29 30 29 29 29
20 21 22 22 22 21 21 23 25 27 26 24 23 23 23 24 24 22 20 19 17 16 15 14 13 12 11 10 11 12 13 13 13 12 12 10 8 8 9 8 8 9 9 10 11 12 13 14 15 16 16 17 17 17 18 18 19 21 21 20 20 21 21 21 21 19 17 18 20 21 20 19 20 22 21 21 22 22 23 24 26 28 29 29 28
14 15 17 18 19 20 21 23 25 27 27 26 25 24 24 25 26 23 20 19 17 16 15 14 13 13 12 11 11 13 14 14 13 13 11 9 9 10 9 7 8 9 10 12 13 14 14 15 15 16 16 16 17 17 18 20 19 19 19 19 19 19 18 16 15 15 15 16 21 24 23 21 21 24 25 25 24 23 24 25 25 26 28 29 30
10 11 13 15 16 17 18 19 21 23 25 25 25 23 21 23 26 24 20 18 17 16 15 14 13 13 12 12 11 11 12 12 12 10 9 10 12 11 9 9 9 11 12 14 16 17 17 16 16 16 17 18 19 19 19 20 20 20 20 21 20 19 19 17 15 16 16 16 21 25 25 22 20 22 25 25 25 26 27 28 27 27 28 29 29
9 10 11 13 14 16 16 16 17 18 21 23 24 23 21 22 25 23 19 17 17 16 14 13 13 12 11 12 11 9 9 9 10 10 10 12 12 10 8 9 10 12 14 16 18 20 21 21 21 19 18 18 19 19 19 19 21 23 21 19 17 18 19 19 19 22 21 20 23 26 25 24 23 25 28 28 28 29 30 29 28 29 30 30 28
10 11 12 13 14 15 16 16 15 16 18 19 21 23 24 24 26 23 18 16 16 15 13 13 13 12 10 10 9 8 8 9 10 10 10 9 9 7 7 8 10 13 15 17 19 20 22 24 26 26 24 23 23 24 24 23 23 21 17 15 16 19 22 24 27 30 30 27 27 26 25 25 23 25 30 30 29 30 30 30 30 30 31 31 29
12 13 13 14 15 16 16 16 16 16 16 16 18 22 25 26 27 23 16 14 15 14 12 13 13 12 10 9 9 9 10 11 11 12 11 11 11 11 11 12 14 16 16 17 19 20 20 22 25 27 27 27 27 26 24 22 21 20 20 21 22 23 26 29 30 31 30 27 25 24 24 25 23 24 28 28 27 28 28 28 29 27 28 30 29
12 13 14 14 15 15 15 15 15 15 14 14 17 21 24 26 26 22 17 14 15 14 11 11 11 10 9 9 10 11 12 12 12 13 13 14 15 15 15 16 17 18 18 18 18 18 20 21 22 24 25 26 26 26 25 25 26 27 29 29 27 26 26 27 27 27 27 25 23 23 26 26 23 24 29 27 26 28 29 28 27 26 27 28 27
13 13 14 15 15 15 14 13 14 14 13 15 18 20 23 25 25 21 18 16 15 12 10 9 9 9 9 10 11 11 11 11 12 13 14 16 18 18 18 18 18 18 19 19 19 19 19 20 22 23 24 25 25 26 28 30 31 31 31 29 25 23 23 21 20 23 25 23 20 21 25 26 22 23 27 26 25 28 28 26 27 27 27 27 26
14 14 14 14 15 14 12 10 11 13 14 16 19 21 23 24 22 18 15 14 12 9 8 7 8 9 10 11 11 12 12 13 14 15 16 17 16 15 15 16 17 19 20 20 20 19 18 19 19 20 21 22 23 23 24 25 26 28 30 30 26 22 21 19 18 21 23 23 21 20 23 26 24 24 25 24 24 27 26 23 25 27 28 27 25
15 14 14 14 13 10 9 8 9 12 14 17 20 21 22 22 19 15 11 10 9 8 8 8 8 8 8 9 9 11 13 15 15 15 15 14 14 13 13 15 17 19 20 19 19 19 20 22 23 24 25 26 26 27 26 24 22 22 24 27 27 24 22 21 20 18 15 15 16 18 21 23 21 21 21 17 14 18 20 19 21 24 25 25 24
Wind_Direction
217 212 202 197 198 199 195 192 203 211 213 213 216 220 224 223 227 236 231 231 235 225 223 219 224 234 228 224 208 202 206 199 194 171 160 165 151 137 113 126 149 156 166 166 159 166 171 171 174 172 172 172 170 168 167 168 160 145 144 159 166 177 179 133 113 96 93 99 99 100 99 96 93 93 93 91 88 89 92 92 93 95 96 94 92
217 217 207 203 203 201 197 193 212 225 224 212 215 225 228 222 225 238 235 229 230 223 222 218 214 224 230 225 211 205 201 196 203 190 174 175 167 158 141 127 145 155 165 170 162 166 173 172 176 173 172 179 175 172 175 175 171 162 157 167 171 171 192 184 131 106 89 92 98 101 101 100 97 96 96 95 92 90 91 93 94 97 99 97 94
210 214 215 211 209 211 209 202 212 230 238 225 221 225 223 226 228 236 236 226 225 219 214 218 213 209 227 234 216 200 198 196 201 204 188 181 182 180 173 153 153 159 163 169 168 172 176 170 176 184 181 181 180 179 179 179 179 174 169 178 182 173 180 208 165 118 99 90 94 99 101 102 101 99 98 97 97 96 95 95 95 99 101 100 99
198 206 223 225 219 222 215 202 208 221 229 226 215 214 224 233 227 236 240 229 232 233 210 211 218 210 214 232 221 200 198 193 194 209 198 187 195 199 189 179 173 170 165 168 172 178 182 170 175 188 183 178 186 190 186 184 183 177 175 183 191 184 180 204 214 154 124 97 92 94 97 102 103 103 100 100 101 101 102 99 99 101 104 105 105
193 197 216 227 227 229 226 216 212 221 226 214 195 206 232 236 226 237 240 224 231 247 234 224 232 223 211 221 217 202 202 195 194 213 208 195 199 203 198 192 190 184 176 172 174 181 187 180 178 187 187 178 185 197 198 177 168 168 178 187 193 191 185 194 219 208 158 118 104 94 96 101 102 105 104 104 104 104 107 104 104 105 108 111 110
193 185 199 217 227 227 232 230 219 229 228 206 195 204 227 229 230 241 228 211 222 230 237 241 241 236 226 233 233 210 209 205 200 207 210 206 199 196 200 205 200 191 183 180 181 183 187 189 188 189 192 182 182 199 209 179 153 148 174 191 196 195 192 189 202 215 201 153 150 123 107 104 101 106 106 111 112 108 111 110 110 111 112 116 116
194 182 190 209 228 231 229 226 218 232 236 219 207 201 216 221 222 234 218 216 231 223 221 234 241 243 238 246 272 274 246 235 214 207 208 209 205 198 201 208 207 198 190 188 191 192 192 194 194 191 194 194 190 201 211 195 171 148 163 193 200 199 197 193 193 206 217 216 207 199 161 130 114 113 109 115 123 121 121 119 120 119 117 119 120
204 191 196 207 230 239 238 230 206 196 225 228 210 200 218 224 218 223 226 225 231 225 207 217 245 263 267 217 263 293 290 299 282 250 229 209 207 214 210 204 210 208 200 202 202 201 202 200 199 195 194 203 206 205 210 208 194 178 171 189 192 193 198 198 191 197 213 227 237 224 200 173 143 126 124 124 130 134 135 136 134 132 129 126 125
210 196 206 215 232 239 240 226 189 181 205 213 199 202 225 224 219 220 233 238 250 345 84 97 10 358 16 190 242 283 287 297 298 293 287 249 221 222 223 214 214 215 211 212 209 208 212 209 207 204 199 204 211 210 209 211 206 206 219 202 184 178 194 199 194 191 205 224 238 230 215 193 171 153 144 138 140 147 150 152 151 151 147 140 135
79 89 182 223 240 233 224 217 211 202 202 194 190 202 209 203 214 221 231 231 267 10 41 32 10 13 5 349 299 292 287 288 283 284 293 291 271 248 240 225 216 219 216 213 215 220 221 213 211 212 209 210 213 215 212 208 205 214 234 219 198 199 187 195 197 194 198 212 225 228 238 220 186 172 168 160 158 163 168 170 169 168 166 165 159
39 36 36 22 3 8 178 225 232 209 201 194 192 199 201 202 210 218 228 228 304 22 61 353 320 334 355 356 339 313 313 315 302 295 290 292 294 283 268 241 224 225 222 221 226 230 226 216 213 214 215 217 218 220 216 211 204 213 235 223 200 209 203 191 199 202 202 206 215 223 238 244 218 190 180 181 182 181 184 185 187 187 182 183 181
35 31 40 37 29 35 46 235 263 201 202 203 198 200 205 210 211 218 222 198 76 54 96 156 250 267 351 344 319 301 301 309 308 313 306 296 297 290 289 289 264 238 232 234 237 237 232 224 220 218 220 223 226 226 220 216 206 205 221 218 204 213 217 205 205 207 208 210 212 218 230 243 245 230 205 206 210 208 207 200 199 202 197 193 193
30 38 47 38 43 62 39 9 3 36 202 201 201 205 206 203 203 216 219 195 191 192 171 170 187 212 167 314 287 283 279 275 284 303 306 302 306 297 289 295 307 296 254 245 245 248 242 231 228 225 228 232 232 231 225 221 214 206 209 212 212 220 225 222 222 217 213 217 215 216 227 239 247 247 243 237 230 231 229 221 213 210 208 203 199
42 51 50 34 48 82 58 18 15 28 19 183 197 202 201 203 201 187 198 220 218 210 192 176 170 187 169 137 273 276 270 261 267 276 281 287 300 296 285 281 292 306 293 269 258 261 261 248 236 231 240 243 236 232 227 222 220 215 212 213 214 216 222 228 231 229 226 226 218 216 228 238 244 246 248 248 243 241 239 236 231 221 215 211 206
54 60 63 45 44 66 71 52 27 26 39 57 88 142 171 187 184 177 181 209 226 230 219 196 180 171 160 154 138 271 239 241 255 241 248 262 274 285 282 278 282 292 293 281 271 271 272 272 256 240 243 252 249 239 232 228 226 223 219 220 219 215 218 222 226 233 238 238 230 225 230 238 243 244 243 245 245 243 241 239 238 232 225 219 214
52 55 65 54 45 62 75 70 54 42 52 61 72 77 94 165 183 177 172 180 208 223 224 210 191 171 139 120 99 60 179 141 221 208 217 236 236 271 264 271 277 279 284 279 274 277 274 276 281 271 256 256 267 251 238 237 235 232 229 226 226 223 220 220 220 228 241 244 241 239 238 240 242 242 240 241 245 244 242 242 240 235 227 224 222
53 57 64 58 57 65 63 69 74 63 48 50 67 73 73 80 99 139 148 165 183 190 191 203 201 191 180 133 123 143 166 126 254 221 1 301 243 247 249 269 276 276 288 285 278 276 269 270 285 298 278 252 249 249 242 247 246 241 238 232 230 230 228 226 222 224 236 242 243 244 245 246 244 242 240 240 244 244 244 242 243 239 227 223 225
62 66 66 59 64 53 37 61 76 50 33 46 58 67 75 71 66 77 106 143 153 146 145 156 187 197 197 182 156 131 133 122 68 338 329 321 298 273 268 275 275 278 289 292 293 284 272 271 284 306 288 248 245 247 241 248 255 249 244 237 233 232 231 233 232 229 232 235 239 243 244 249 250 247 245 244 245 245 246 243 245 246 230 219 222
68 70 67 56 62 53 40 53 60 48 40 49 52 57 69 66 64 73 76 96 112 109 116 131 151 168 168 167 172 143 140 139 129 157 281 307 312 302 296 279 269 273 272 277 296 295 284 286 292 296 280 257 258 254 241 239 251 253 247 240 236 235 232 234 237 236 235 234 237 239 241 247 252 251 248 247 246 245 246 243 243 244 230 219 220
75 71 71 65 66 65 53 46 47 58 65 56 50 53 63 63 64 70 69 76 89 96 106 110 114 107 102 142 173 190 168 147 153 170 173 230 263 283 301 289 267 264 257 263 282 293 292 290 292 286 278 278 270 261 253 246 250 254 248 239 233 237 238 238 240 240 240 238 237 239 238 240 244 246 247 247 246 246 246 244 241 236 227 223 223
83 79 78 75 72 70 64 52 48 57 65 66 62 58 60 60 60 63 65 69 70 82 102 102 104 97 82 164 213 219 204 189 182 192 200 215 245 259 273 268 262 264 254 256 273 287 293 286 283 278 276 284 279 277 274 258 253 253 249 244 234 231 236 241 244 244 242 239 238 240 238 236 237 240 245 247 245 245 247 246 243 232 223 224 225
93 94 89 85 81 74 69 61 57 61 64 68 73 70 69 67 65 64 64 66 63 69 82 82 88 79 50 41 20 342 203 182 153 213 254 247 275 300 286 267 270 279 262 258 280 293 288 281 279 277 279 284 278 276 276 262 252 246 246 246 238 231 234 241 246 247 246 244 242 242 240 238 238 240 245 250 248 246 246 247 245 233 223 224 225
109 108 100 96 93 86 78 69 67 68 67 71 75 71 69 68 69 69 68 67 63 66 70 67 70 63 49 46 40 38 44 51 46 24 6 354 346 344 331 320 318 321 306 278 293 314 290 276 272 272 278 279 270 263 263 261 255 250 250 249 242 239 243 244 244 244 246 249 249 245 242 239 239 239 242 247 249 247 243 244 244 235 227 228 227
127 123 113 105 101 95 86 79 80 76 71 75 79 77 74 72 71 69 69 69 68 71 70 61 63 62 54 53 51 48 46 43 37 28 24 17 5 345 332 334 330 333 336 325 302 290 275 269 269 267 269 269 260 249 245 246 250 258 259 253 248 248 248 242 239 241 247 255 254 247 242 238 236 237 237 241 247 246 241 238 239 234 229 230 228
147 144 134 121 111 102 94 92 95 91 90 88 86 83 81 80 77 70 71 69 66 69 67 60 61 58 51 53 55 51 48 46 38 32 32 17 8 357 339 344 341 329 328 315 296 283 267 256 252 252 265 266 250 226 210 199 210 273 271 255 259 266 265 256 253 255 256 259 258 251 246 241 237 236 235 235 239 243 242 241 241 239 236 235 230
159 163 152 137 129 119 116 115 107 105 107 104 100 95 90 91 90 83 79 77 75 75 72 70 68 62 59 60 59 53 44 40 36 30 29 21 15 14 356 343 333 317 310 310 313 313 295 268 247 234 268 42 91 122 131 126 275 299 300 291 283 277 277 277 275 272 267 261 259 255 252 248 243 241 239 237 236 236 239 242 243 243 242 240 237
168 175 168 152 149 143 141 138 126 123 116 107 105 100 97 101 103 99 93 90 88 81 77 80 77 77 82 73 64 63 48 37 39 31 27 28 20 13 4 343 332 321 318 329 329 337 358 360 357 29 49 61 70 79 67 19 321 305 311 310 304 293 291 289 285 286 281 271 263 259 257 254 249 245 244 243 239 236 236 238 240 243 244 244 242
175 182 175 162 166 162 155 155 147 146 135 121 121 116 112 112 110 108 103 95 93 85 79 81 76 80 90 80 71 71 62 52 48 40 33 30 23 11 359 350 349 335 326 337 331 342 360 359 354 15 33 43 52 58 46 19 345 13 347 322 310 299 298 295 287 283 280 275 270 266 262 259 254 250 248 248 246 242 239 238 238 240 243 245 245
178 188 184 171 178 173 169 174 166 163 160 146 152 150 134 129 124 121 116 112 110 103 95 89 82 79 78 77 76 62 61 66 46 37 47 31 31 28 2 354 350 338 327 334 329 333 345 345 345 355 2 11 18 16 12 358 312 325 324 303 286 275 281 286 283 279 276 274 275 274 271 266 261 257 253 252 251 249 246 242 241 240 242 243 245
182 192 189 181 189 185 181 190 184 178 178 168 171 168 153 151 146 138 139 133 122 115 114 108 101 90 71 72 73 41 37 46 21 23 35 21 19 7 345 338 324 323 328 322 309 312 330 336 338 340 339 342 347 342 334 317 300 304 305 299 291 279 276 278 277 276 274 273 273 273 273 272 268 265 260 257 254 253 251 248 245 243 243 243 244
189 196 198 193 198 196 193 199 196 191 188 183 184 179 172 174 165 161 167 150 136 140 139 128 119 107 88 81 75 47 26 26 18 17 7 357 5 359 348 341 323 314 306 302 289 297 320 325 321 326 330 328 328 325 317 307 299 300 302 300 296 288 282 277 274 274 273 274 275 275 275 274 272 269 264 260 258 257 255 253 250 248 247 246 246
199 199 202 202 206 206 203 205 204 200 197 192 193 189 186 189 182 180 182 166 161 168 157 146 145 134 117 107 83 29 26 28 23 14 353 338 322 317 322 318 308 297 283 281 268 280 301 310 310 314 317 315 314 312 306 303 299 297 296 293 289 287 284 281 280 279 277 276 277 277 277 275 274 271 266 262 260 259 259 257 256 253 252 251 250
212 210 209 210 215 214 210 211 210 207 204 201 199 194 193 194 191 192 189 179 179 182 175 173 169 164 159 151 156 190 36 22 13 358 341 331 312 298 286 271 284 294 291 291 290 293 301 307 307 306 306 306 306 305 302 301 299 298 296 291 289 289 289 288 288 287 285 282 279 277 276 274 272 270 267 265 263 262 260 259 258 257 255 254 253
216 215 220 223 225 224 221 218 216 213 209 207 205 200 198 198 195 195 192 186 189 188 183 184 182 179 179 170 166 180 196 319 346 345 337 340 340 328 322 325 322 318 316 309 307 306 305 306 306 304 303 302 300 300 301 300 300 300 296 292 290 289 289 289 288 288 287 284 281 280 280 278 275 268 263 262 263 265 266 264 263 261 260 258 256
234 224 231 232 228 231 233 228 225 221 215 212 211 206 204 204 200 199 197 191 193 194 187 188 192 187 183 180 179 190 205 225 267 296 318 324 330 332 328 328 322 312 305 300 296 291 290 295 301 303 304 304 301 300 299 297 297 296 295 293 291 288 286 285 286 287 286 281 280 284 285 281 276 267 260 256 258 263 267 270 270 269 267 264 260
245 237 238 237 232 234 236 233 232 229 222 218 216 211 210 211 206 203 201 197 197 199 194 192 196 191 186 189 190 195 202 200 220 262 293 307 310 325 326 321 318 315 313 309 302 299 298 300 302 302 303 303 301 300 300 298 297 296 295 295 292 290 289 288 288 288 286 282 283 288 291 285 277 269 260 256 256 260 265 269 271 272 272 270 266
241 244 243 240 237 237 238 235 234 233 229 224 220 217 216 217 214 209 205 202 201 203 199 197 198 191 185 191 196 196 199 198 206 230 249 279 303 315 317 316 313 313 314 312 309 308 305 302 301 301 301 300 298 298 298 297 296 294 292 292 291 291 290 288 288 287 287 286 288 293 296 294 288 280 271 265 263 264 266 268 270 272 273 272 270
232 248 250 243 237 240 245 244 240 237 234 228 222 219 218 221 220 214 210 210 207 205 204 200 199 195 190 193 198 200 202 202 203 217 236 253 281 295 298 304 307 308 310 309 307 305 301 297 296 297 297 296 294 294 295 295 295 295 297 295 292 288 286 286 286 287 288 288 287 288 292 294 292 287 280 275 272 270 269 269 270 271 271 272 271
230 240 245 243 243 249 253 251 246 242 241 240 235 227 220 219 221 216 213 214 211 209 207 202 200 201 200 198 199 203 206 206 206 207 211 226 250 267 277 287 294 299 303 304 303 301 299 298 295 294 294 294 293 294 295 294 292 293 295 296 296 295 293 293 294 295 293 289 285 285 287 291 291 288 284 279 275 273 272 272 272 270 270 271 272
234 237 240 240 242 247 253 256 254 247 243 242 244 245 236 226 221 217 214 213 212 211 208 203 203 203 199 197 201 204 207 210 211 209 219 251 264 261 263 271 282 294 300 301 301 299 297 296 294 294 295 295 294 295 297 297 295 295 298 303 308 309 305 301 300 299 297 294 291 289 290 292 291 289 286 283 280 276 272 270 271 272 272 272 272
235 237 238 238 237 234 240 250 252 247 242 236 235 247 254 241 225 215 212 213 212 210 206 202 203 201 197 200 205 207 214 221 220 226 253 276 273 266 270 272 272 280 289 294 297 299 299 297 295 297 298 297 297 300 304 307 306 306 307 306 303 301 300 297 294 293 293 292 289 287 288 291 291 291 289 287 286 286 280 272 268 270 273 273 273
240 243 242 243 243 240 239 243 246 246 246 243 234 235 244 241 227 214 209 211 211 209 204 200 202 202 201 207 211 213 222 230 234 249 270 278 271 273 280 276 275 280 285 289 290 292 293 292 292 294 296 294 294 300 304 306 306 306 307 307 302 298 297 294 292 293 291 290 295 298 297 295 295 297 297 292 288 289 290 286 278 275 275 273 271
247 248 245 244 245 241 236 237 243 247 247 246 242 237 238 235 224 210 201 204 208 208 203 200 203 203 201 209 219 223 229 238 248 261 273 277 280 289 289 280 279 280 280 283 284 284 284 283 283 286 289 291 294 299 302 304 307 310 313 316 316 314 309 301 297 299 295 298 307 308 302 297 296 296 295 291 288 287 289 293 293 289 283 278 272
259 253 248 246 245 244 238 234 239 245 245 245 242 238 235 231 219 205 195 198 203 203 201 200 202 204 204 211 221 228 233 240 250 260 270 278 286 292 289 283 282 281 281 282 281 279 277 275 276 277 280 286 292 295 297 300 307 312 313 313 313 314 313 308 303 303 299 303 313 312 303 298 296 295 293 289 287 286 284 286 290 291 289 286 279
275 267 260 257 254 253 250 242 237 240 242 241 237 232 228 223 214 201 194 196 196 196 199 200 202 205 207 210 217 226 235 244 252 256 262 272 280 284 280 280 285 288 288 286 283 280 275 271 269 269 273 279 284 287 288 292 300 306 307 306 307 309 312 310 306 304 300 302 312 313 304 297 295 293 290 287 286 285 283 282 285 286 287 290 286
280 273 265 263 261 258 255 250 243 239 238 236 232 227 221 215 208 199 192 192 191 194 202 204 204 206 207 210 218 227 237 247 255 258 257 259 266 278 284 286 290 292 292 291 289 285 278 271 266 266 268 271 275 279 284 287 291 293 293 297 301 303 304 300 297 296 295 295 302 303 294 291 292 288 284 285 287 285 283 283 284 284 284 286 288
279 276 269 263 261 259 257 253 249 245 238 232 229 224 215 208 203 196 190 190 190 194 202 201 199 205 214 224 231 236 243 252 258 258 256 252 256 269 281 285 287 288 288 289 289 287 284 279 275 273 273 273 273 275 278 279 278 277 281 288 293 296 297 294 291 291 290 290 292 291 285 286 288 284 282 286 288 286 285 285 285 285 284 283 286
274 274 273 268 263 260 257 253 249 246 236 226 224 219 208 202 198 191 185 182 182 186 192 194 200 213 226 235 238 244 251 258 260 259 260 263 267 275 281 284 286 286 286 289 287 284 283 282 280 280 280 279 276 274 274 273 273 277 282 285 287 289 289 287 285 284 284 285 283 278 279 283 283 279 278 281 285 285 287 288 286 286 285 283 287
273 270 271 271 269 266 263 254 244 238 226 214 213 209 201 196 192 186 180 178 178 185 194 200 212 225 233 238 241 248 255 262 268 272 274 276 278 280 282 282 284 285 287 291 290 286 284 283 282 282 282 281 279 276 276 276 275 277 280 280 281 283 281 279 278 278 279 279 278 275 278 282 284 281 281 282 281 280 281 284 286 288 285 283 285
275 272 270 271 271 267 264 255 243 235 222 206 200 195 190 188 185 179 178 179 181 192 205 214 224 231 241 249 250 252 257 263 270 274 273 274 276 278 280 283 285 286 289 294 294 291 288 283 279 278 278 279 279 279 280 279 276 274 272 272 273 274 272 270 276 280 278 274 272 272 274 279 282 285 290 293 288 281 277 277 282 285 280 275 273
272 270 267 268 268 262 254 246 239 234 217 196 188 186 184 182 179 173 171 178 186 197 209 218 226 230 243 262 265 259 256 258 262 266 267 270 272 273 278 285 288 289 291 293 292 291 289 286 284 283 282 282 283 284 284 283 280 277 273 272 271 268 265 266 273 280 281 277 273 268 268 276 285 291 298 304 299 291 285 280 285 288 275 260 253